TimeEST,TemperatureF,Dew PointF,Humidity,Sea Level PressureIn,VisibilityMPH,Wind Direction,Wind SpeedMPH,Gust SpeedMPH,PrecipitationIn,Events,Conditions,WindDirDegrees,DateUTC
12:15 AM,39.2,33.8,81,29.92,10.0,NW,8.1,-,N/A,Rain,Light Rain,320,2012-11-07 05:15:00
12:35 AM,39.2,33.8,81,29.91,10.0,NW,10.4,-,N/A,,Overcast,320,2012-11-07 05:35:00
12:55 AM,39.2,33.8,81,29.90,10.0,NW,9.2,-,N/A,,Mostly Cloudy,320,2012-11-07 05:55:00
1:15 AM,39.2,33.8,81,29.91,10.0,NW,8.1,-,N/A,,Overcast,310,2012-11-07 06:15:00
1:35 AM,41.0,33.8,76,29.90,10.0,NW,9.2,-,N/A,,Overcast,320,2012-11-07 06:35:00
1:55 AM,41.0,35.6,81,29.89,10.0,NNW,8.1,-,N/A,,Overcast,330,2012-11-07 06:55:00
2:15 AM,41.0,35.6,81,29.89,10.0,NW,9.2,-,N/A,,Overcast,320,2012-11-07 07:15:00
2:35 AM,41.0,35.6,81,29.88,10.0,NW,9.2,-,N/A,,Overcast,320,2012-11-07 07:35:00
2:55 AM,41.0,35.6,81,29.88,10.0,NW,8.1,-,N/A,,Overcast,320,2012-11-07 07:55:00
3:15 AM,41.0,35.6,81,29.88,10.0,NW,9.2,-,N/A,Rain,Light Rain,310,2012-11-07 08:15:00
8:15 AM,39.2,33.8,81,29.90,10.0,NW,5.8,-,N/A,,Overcast,320,2012-11-07 13:15:00
8:35 AM,39.2,33.8,81,29.91,10.0,NW,9.2,-,N/A,,Overcast,320,2012-11-07 13:35:00
8:55 AM,39.2,33.8,81,29.90,10.0,NW,6.9,-,N/A,Rain,Light Rain,310,2012-11-07 13:55:00
9:15 AM,41.0,33.8,76,29.90,10.0,WNW,10.4,-,N/A,Rain,Light Rain,300,2012-11-07 14:15:00
9:35 AM,41.0,33.8,76,29.90,10.0,NW,11.5,-,N/A,,Unknown,320,2012-11-07 14:35:00
9:55 AM,41.0,33.8,76,29.90,10.0,NW,12.7,17.3,N/A,,Light Drizzle,320,2012-11-07 14:55:00
10:15 AM,41.0,32.0,70,29.90,10.0,NW,11.5,-,N/A,,Overcast,310,2012-11-07 15:15:00
10:35 AM,41.0,33.8,76,29.91,10.0,NW,9.2,-,N/A,,Light Drizzle,310,2012-11-07 15:35:00
10:55 AM,42.8,33.8,70,29.90,10.0,WNW,10.4,-,N/A,,Light Drizzle,300,2012-11-07 15:55:00
11:15 AM,41.0,33.8,76,29.89,10.0,NW,9.2,-,N/A,Rain,Light Rain,310,2012-11-07 16:15:00
11:35 AM,41.0,33.8,76,29.88,10.0,NW,8.1,-,N/A,Rain,Light Rain,320,2012-11-07 16:35:00
11:55 AM,42.8,33.8,70,29.87,10.0,WNW,6.9,-,N/A,Rain,Light Rain,300,2012-11-07 16:55:00
12:15 PM,42.8,35.6,76,29.87,10.0,WNW,4.6,-,N/A,,Unknown,290,2012-11-07 17:15:00
12:35 PM,42.8,35.6,76,29.86,10.0,WNW,4.6,-,0.01,Rain,Light Rain,290,2012-11-07 17:35:00
12:55 PM,42.8,37.4,81,29.86,10.0,WNW,3.5,-,0.01,Rain,Light Rain,290,2012-11-07 17:55:00
1:15 PM,42.8,35.6,76,29.86,10.0,WNW,4.6,-,N/A,Rain,Light Rain,300,2012-11-07 18:15:00
1:35 PM,42.8,35.6,76,29.86,10.0,NW,10.4,-,N/A,,Unknown,310,2012-11-07 18:35:00
1:55 PM,42.8,33.8,70,29.86,10.0,NW,9.2,-,N/A,,Light Drizzle,320,2012-11-07 18:55:00
2:15 PM,42.8,35.6,76,29.86,10.0,NW,8.1,-,N/A,,Overcast,320,2012-11-07 19:15:00
2:35 PM,42.8,35.6,76,29.86,10.0,NW,6.9,-,N/A,,Overcast,310,2012-11-07 19:35:00
2:55 PM,42.8,33.8,70,29.87,10.0,NW,9.2,-,N/A,Rain,Light Rain,310,2012-11-07 19:55:00
3:15 PM,42.8,35.6,76,29.87,10.0,WNW,4.6,-,N/A,,Light Drizzle,290,2012-11-07 20:15:00
3:35 PM,41.0,35.6,81,29.88,7.0,WNW,6.9,-,N/A,Rain,Light Rain,290,2012-11-07 20:35:00
3:55 PM,41.0,35.6,81,29.88,10.0,WNW,5.8,-,N/A,Rain,Light Rain,290,2012-11-07 20:55:00
4:15 PM,41.0,35.6,81,29.88,10.0,West,4.6,-,N/A,,Unknown,280,2012-11-07 21:15:00
4:35 PM,39.2,37.4,93,29.88,10.0,West,3.5,-,0.01,Rain,Light Rain,270,2012-11-07 21:35:00
4:55 PM,39.2,37.4,93,29.88,10.0,West,5.8,-,0.01,,Overcast,280,2012-11-07 21:55:00
5:15 PM,39.2,37.4,93,29.88,10.0,West,4.6,-,N/A,,Overcast,270,2012-11-07 22:15:00
5:35 PM,37.4,37.4,100,29.89,10.0,West,3.5,-,N/A,,Overcast,270,2012-11-07 22:35:00
6:15 PM,37.4,37.4,100,29.91,10.0,Calm,Calm,-,N/A,,Overcast,0,2012-11-07 23:15:00
6:35 PM,37.4,35.6,93,29.91,10.0,WNW,3.5,-,N/A,,Overcast,290,2012-11-07 23:35:00
6:55 PM,37.4,35.6,93,29.91,10.0,West,3.5,-,N/A,,Overcast,270,2012-11-07 23:55:00
7:15 PM,37.4,35.6,93,29.91,10.0,West,3.5,-,N/A,,Mostly Cloudy,260,2012-11-08 00:15:00
7:35 PM,35.6,35.6,100,29.92,10.0,WNW,4.6,-,N/A,,Clear,290,2012-11-08 00:35:00
7:55 PM,35.6,35.6,100,29.92,10.0,West,4.6,-,N/A,,Clear,280,2012-11-08 00:55:00
8:15 PM,35.6,33.8,93,29.92,10.0,West,3.5,-,N/A,,Clear,280,2012-11-08 01:15:00
8:35 PM,35.6,33.8,93,29.92,10.0,West,3.5,-,N/A,,Clear,280,2012-11-08 01:35:00
8:55 PM,35.6,33.8,93,29.92,10.0,West,3.5,-,N/A,,Clear,270,2012-11-08 01:55:00
9:15 PM,35.6,33.8,93,29.92,10.0,Calm,Calm,-,N/A,,Scattered Clouds,0,2012-11-08 02:15:00
9:35 PM,35.6,33.8,93,29.93,10.0,WNW,4.6,-,N/A,,Mostly Cloudy,290,2012-11-08 02:35:00
9:55 PM,35.6,33.8,93,29.93,10.0,WNW,4.6,-,N/A,,Overcast,300,2012-11-08 02:55:00
10:15 PM,35.6,33.8,93,29.93,10.0,WNW,5.8,-,N/A,,Overcast,290,2012-11-08 03:15:00
10:35 PM,35.6,33.8,93,29.94,10.0,WNW,4.6,-,N/A,,Overcast,290,2012-11-08 03:35:00
10:55 PM,37.4,33.8,87,29.93,10.0,WNW,3.5,-,N/A,,Overcast,290,2012-11-08 03:55:00
11:15 PM,37.4,33.8,87,29.94,10.0,WNW,3.5,-,N/A,,Overcast,290,2012-11-08 04:15:00
11:35 PM,37.4,33.8,87,29.94,10.0,WNW,3.5,-,N/A,,Overcast,290,2012-11-08 04:35:00
11:55 PM,37.4,33.8,87,29.94,10.0,West,3.5,-,N/A,,Overcast,270,2012-11-08 04:55:00